Regional Weather Roundup
Issued by NWS Goodland, KS

Home | Current Version | Previous Version | Text Only | Print | Product List | Glossary On
Versions: 1 2 3 4 5 6 7 8 9 10 11 12 13 14 15 16 17 18 19 20 21 22 23 24 25 26 27 28 29 30 31 32 33 34 35 36 37 38 39 40 41 42 43 44 45 46 47 48 49 50
000
ASUS43 KGLD 031208
RWRGLD

GOODLAND FORECAST AREA HOURLY WEATHER ROUNDUP
NATIONAL WEATHER SERVICE GOODLAND KS
600 AM MDT SUN MAY 03 2015

...OFFICIAL OBSERVATIONS...

CITY           SKY/WX    TMP DP  RH WIND       PRES   REMARKS
GOODLAND KS    CLEAR     49  44  83 W7        29.84S
HILL CITY KS   PTCLDY    54  47  77 NW5       29.80F
IMPERIAL NEB   CLEAR     54  42  64 W14       29.80R
MCCOOK NEB     CLEAR     52  44  74 W7        29.77S
AKRON CO       CLEAR     50  42  74 W14       29.87F
BURLINGTON CO  CLEAR     50  42  74 W9        29.86R
LIMON CO       CLEAR     41  37  86 NW7       29.92F
$$

...UNOFFICIAL OBSERVATIONS...

CITY           SKY/WX    TMP DP  RH WIND       PRES   REMARKS
COLBY KS       CLEAR     54  48  82 SW7       29.84S
GOVE KS          N/A     53  32  45 MISG        N/A
LENORA KS        N/A     58  32  37 MISG        N/A
NORTON KS      CLEAR     57  45  62 SW7       29.79
SHARON SPRINGS   N/A     52  46  79 MISG        N/A
KIT CARSON CO    N/A     48  41  78 MISG        N/A
YUMA CO          N/A     48  43  83 N9          N/A
$$



USA.gov is the U.S. government's official web portal to all federal, state and local government web resources and services.